User: anonymous   Login
Location: Unspecified
(48.7670°N, 0.0000°E)
Time: 12:51:57
(UTC+00:00)
Language:

Altair - Orbit

View from above orbital plane
View from above orbital plane
View from above satellite
View from above satellite

Ground track
Ground track

The orbit data is extracted from the following two-line orbital elements,

1    50U 60009B   20295.11146962 -.00000132 +00000-0 -43991-3 0  9995
2    50 047.2306 091.2683 0113255 340.2076 019.4339 12.20112726685560
Epoch (UTC): 21 October 2020 02:40:30
Eccentricity: 0.0113255
inclination: 47.2306°
perigee height: 1502 km
apogee height: 1682 km
right ascension of ascending node: 91.2683°
argument of perigee: 340.2076°
revolutions per day: 12.20112726
mean anomaly at epoch: 19.4339°
orbit number at epoch: 68556

The dashed part of the orbit path shows where the satellite is in the earth's shadow,  

DLR